DECAYED

STARLINK-1485, 45774 (Decayed)

Orbit data source: Space-Track

STARLINK-1485, 45774 was a payload satellite owned by SpaceX/Seattle (US) in LEO that was launched on Sat, 13 Jun 2020 UTC via an FALCON 9 launch vehicle from the Air Force Eastern Test Range (AFETR). Payload-class satellites include a variety of spacecraft equipped with specific instruments for various scientific and technological missions. These include communications satellites like Starlink; space stations such as the ISS; scientific satellites like the Hubble; Earth observation satellites from companies like Planet Labs, Umbra, and HawkEye 360; GPS; miniature CubeSats for education and research; and military/defense satellites.

Not visible in the next 10 days
Identifier
45774, 2020-038AW
Orbit
Decayed
Country
Flag of USUS
Related business
Manufacturer
SpaceX/Seattle
Mission
Decayed Commercial Communications
Bus & Motor
STARLINK, Unknown motor
Mass
260 kg wet, ~248 kg dry
Launch date (UTC)
2020-06-13 (6 years ago)
Launch vehicle
FALCON 9
Launch site
Air Force Eastern Test Range (AFETR)
Object type
Payload
Rocket body
Debris
Shape & HBR
Box + 1 Pan, 10.1 m
Radar Cross Section
13.562 m², Large (>1 m²)

Expand to show TLE details & history
Last TLE update: 10 months ago

TLE from 10 months ago
0 STARLINK-1485
1 45774U 20038AW  25307.95871748  .12796539  12476-4  30275-3 0  9992
2 45774  53.0287 325.2733 0003832 208.5273 151.5567 16.46162431298869
Epoch: 2025-11-03T23:00Z
TLE epoch observation values (Epoch: 2025-11-03T23:00:33.190Z)
Latitude
0.00001°
Longitude
-63.3176°
Altitude
152.59 km
Speed
7.815 km/s
True Right ascension
21h 41m 05s
True Declination
0° 00' 00"
Sunlit
Object was in full shadow at epoch
Visualization orbit readout
Latitude
Unknown
Longitude
Unknown
Altitude
Unknown
Speed
Unknown
Apparent Right ascension
Unknown
Apparent Declination
Unknown
Sunlit
N/A
Visualization observer readout
Local Sidereal Time
18:44:25
Azimuth
Unknown
Elevation
Unknown
Doppler factor
Unknown
Orbital elements
Apogee altitude
152.253 km
Perigee altitude
147.25 km
Semi-major axis
6,527.889 km
Eccentricity
0.00038
Inclination
53.0287°
RAAN
325.2733°
Arg. of periapsis
208.5273°
True anomaly
151.57761°
Mean anomaly
151.5567°
Eccentric anomaly
151.56715°
Mean motion
4.11513 °/min
Orbital period
87.48 mins
BSTAR
0.00030275
Loading maneuver chart data...
Computing Atmospheric mass density...

Documentation

Showing up to 5 results
|